This is the latest recevied weather packets stored in our database for station/object WB4ROX. If no packets are shown the sender has not sent any weather packets the latest 10 day(s).
| Time | Temp. | Humidity | Pressure | Rain* | Wind** | Luminosity | Snow |
|---|---|---|---|---|---|---|---|
| 1777989283 | 13.33° C | 44% | 1019.6 hPa | 0 mm | - | 433 W/m² | - |
| 1777988980 | 13.33° C | 45% | 1019.6 hPa | 0 mm | - | 451 W/m² | - |
| 1777988676 | 13.33° C | 46% | 1019.4 hPa | 0 mm | - | 420 W/m² | - |
| 1777988373 | 12.78° C | 46% | 1019.3 hPa | 0 mm | - | 391 W/m² | - |
| 1777988070 | 12.78° C | 47% | 1019.1 hPa | 0 mm | - | 369 W/m² | - |
| 1777987765 | 12.78° C | 47% | 1019.3 hPa | 0 mm | - | 318 W/m² | - |
| 1777987462 | 12.78° C | 48% | 1019.3 hPa | 0 mm | - | 348 W/m² | - |
| 1777987160 | 11.67° C | 50% | 1019.3 hPa | 0 mm | - | 338 W/m² | - |
| 1777986857 | 11.67° C | 51% | 1019.3 hPa | 0 mm | - | 216 W/m² | - |
| 1777986555 | 11.67° C | 52% | 1019.3 hPa | 0 mm | - | 184 W/m² | - |
| 1777986253 | 11.11° C | 53% | 1019 hPa | 0 mm | - | 130 W/m² | - |
| 1777985949 | 11.11° C | 53% | 1019 hPa | 0 mm | - | 88 W/m² | - |
| 1777985648 | 11.11° C | 52% | 1019.4 hPa | 0 mm | - | 89 W/m² | - |
| 1777985343 | 11.11° C | 53% | 1019.2 hPa | 0 mm | - | 141 W/m² | - |
| 1777985040 | 11.11° C | 53% | 1019.2 hPa | 0 mm | - | 123 W/m² | - |
| 1777984736 | 10.56° C | 56% | 1019.1 hPa | 0 mm | - | 96 W/m² | - |
| 1777984433 | 10.56° C | 57% | 1018.9 hPa | 0 mm | - | 81 W/m² | - |
| 1777984129 | 10.56° C | 57% | 1018.8 hPa | 0 mm | - | 58 W/m² | - |
| 1777983827 | 10° C | 58% | 1018.8 hPa | 0 mm | - | 66 W/m² | - |
| 1777983523 | 10° C | 59% | 1018.9 hPa | 0 mm | - | 39 W/m² | - |
| 1777983220 | 10° C | 59% | 1018.6 hPa | 0 mm | - | 33 W/m² | - |
| 1777982916 | 10° C | 60% | 1018.8 hPa | 0 mm | - | 32 W/m² | - |
| 1777982612 | 10° C | 60% | 1018.8 hPa | 0 mm | - | 36 W/m² | - |
| 1777982311 | 9.44° C | 61% | 1018.6 hPa | 0 mm | - | 30 W/m² | - |
| 1777982008 | 9.44° C | 61% | 1018.6 hPa | 0 mm | - | 29 W/m² | - |
* Rain latest hour (hover to see other rain measurements)
** Current wind speed in m/s (hover to see current wind gust speed)